Powrót do katalogu

STARLINK-34351

AktywnyŁącznośćVLEO
NORAD 64387·PAYLOAD·🇺🇸 United States

Wystrzelony Jun 13, 2025 z Cape Canaveral Space Force Station

Loading…

Następne Przeloty (najbliższe 24 godziny)

TLE

ŚwieżeSource: CelesTrak SupGP

Epoka: Sep 14, 2026, 22:54 UTC

1 64387C 25127T   26257.95465278 -.00011193  00000+0 -40554-3 0  2577
2 64387  43.0026 190.5662 0001258 264.1844 205.6245 15.27572725    17

Śledź STARLINK-34351 w czasie rzeczywistym z AllMySat

Download on the App Store